Hourly Weather Roundup
Issued by NWS Central Illinois

Home | Current Version | Previous Version | Text Only | Print | Product List | Glossary On
Versions: 1 2 3 4 5 6 7 8 9 10 11 12 13 14 15 16 17 18 19 20 21 22 23 24 25 26 27 28 29 30 31 32 33 34 35 36 37 38 39 40 41 42 43 44 45 46 47 48 49 50
000
NZUS43 KILX 020310
HWRILX

AREA WEATHER ROUNDUP
NATIONAL WEATHER SERVICE, LINCOLN IL
1000 PM CDT MON JUN 01 2015


CITY           SKY/WX    TMP DP  RH WIND       PRES   REMARKS
BLOOMINGTON    CLEAR     58  54  86 NE3       30.18S
CHAMPAIGN      PTCLDY    59  55  87 NE6       30.16R
DANVILLE       CLEAR     58  53  84 CALM      30.15R
DECATUR        MOCLDY    59  55  87 NE7       30.16R
EFFINGHAM      PTCLDY    57  53  88 CALM      30.17R
FLORA          MOCLDY    60  54  80 NE5       30.15R
GALESBURG      CLOUDY    60  55  84 S3        30.17R
JACKSONVILLE   PTCLDY    60  56  85 NE7       30.16R
LACON          CLEAR     56  50  79 E6        30.18R
LAWRENCEVILLE  MOCLDY    59  54  83 NE6       30.14R
LITCHFIELD     CLOUDY    62  55  80 NE8       30.15R
$$


CITY           SKY/WX    TMP DP  RH WIND       PRES   REMARKS
LINCOLN        CLEAR     57  52  84 N3        30.16R
MACOMB         CLEAR     57  55  91 CALM      30.18S
MATTOON        CLEAR     58  53  84 E6        30.15R
MT CARMEL AP   CLOUDY    63  54  72 NE8       30.14R
OLNEY-NOBLE AP MOCLDY    59  54  82 NE5       30.14R
PARIS          CLEAR     58  54  84 E6        30.17R
PEORIA         CLEAR     58  52  80 CALM      30.17S
PONTIAC        CLEAR     57  50  78 NE10      30.20R
RANTOUL        CLOUDY    63  57  81 NE7       30.17R
ROBINSON       MOCLDY    59  53  82 E6        30.16R
SPRINGFIELD    CLEAR     59  53  80 NE6       30.16S
TAYLORVILLE    CLOUDY    59  55  88 N8        30.15S
$$

...REGIONAL REPORTS...


CITY           SKY/WX    TMP DP  RH WIND       PRES   REMARKS
CHICAGO O`HARE PTCLDY    49  36  61 N6        30.22R
KANKAKEE       MOCLDY    50  40  68 NE6       30.21R
MOLINE         CLOUDY    63  45  51 E10       30.15R
MOUNT VERNON   CLOUDY    59  54  82 CALM      30.15R
PITTSFIELD     CLOUDY    62  57  84 CALM      30.16S
QUINCY         PTCLDY    61  54  77 CALM      30.15S
ROCKFORD       PTCLDY    53  40  61 E7        30.23R
$$


CITY           SKY/WX    TMP DP  RH WIND       PRES   REMARKS
BURLINGTON     CLEAR     59  55  87 CALM      30.15S
CEDAR RAPIDS   CLEAR     59  48  67 E8        30.14R
DES MOINES     PTCLDY    62  53  72 S7        30.12R
KIRKSVILLE     MOCLDY    55  54  96 CALM      30.16R
OTTUMWA        CLEAR     59  55  87 S5        30.14R
ST LOUIS       CLOUDY    64  55  72 N5        30.15R
$$


CITY           SKY/WX    TMP DP  RH WIND       PRES   REMARKS
TERRE HAUTE    CLOUDY    58  52  80 NE8       30.16R
EVANSVILLE     CLOUDY    60  54  80 NE7       30.13R
INDIANAPOLIS   CLOUDY    57  47  69 NE14      30.16R
LAFAYETTE      CLEAR     54  50  86 E3        30.18R
MADISON        PTCLDY    54  30  40 SE5       30.21R
MILWAUKEE      CLEAR     47  33  58 N5        30.23R
$$




USA.gov is the U.S. government's official web portal to all federal, state and local government web resources and services.